This demonstration page uses our WeatherBlox Daily Observations layout. Learn more.

Left ArrowRight Arrow

Hourly Observations for September 28, 2022

Temp ( °F °C ) Dew Point ( °F °C ) Humidity (%) Winds ( mph kmh ) Pressure ( in mb ) Visibility ( mi km ) Precip ( " mm )
12:53 am 00:53 Mostly Clear 77 25 68 20 74 74 SE 8 13 29.99 1016 10 16 0.00 0.00
1:53 am 01:53 Mostly Cloudy 78 25.6 68 20 71 71 NE 3 6 29.98 1015 10 16 0.00 0.00
2:53 am 02:53 Partly Cloudy 78 25.6 67 19.4 69 69 Calm 29.97 1015 10 16 0.00 0.00
3:53 am 03:53 Partly Cloudy 76 24.4 68 20 77 77 ENE 3 6 29.96 1015 10 16 0.00 0.00
4:53 am 04:53 Clear 75 23.9 67 19.4 76 76 ENE 5 7 29.98 1015 10 16 0.00 0.00
5:53 am 05:53 Mostly Clear 75 23.9 67 19.4 76 76 ENE 6 9 29.99 1016 10 16 0.00 0.00
6:53 am 06:53 Sunny 76 24.4 66 18.9 71 71 E 6 9 30.00 1016 10 16 0.00 0.00
7:53 am 07:53 Partly Cloudy 79 26.1 68 20 69 69 N 8 13 30.01 1016 10 16 0.00 0.00
8:53 am 08:53 Sunny 82 27.8 67 19.4 60 60 WSW 6 9 30.02 1017 10 16 0.00 0.00
9:53 am 09:53 Mostly Sunny 84 28.9 70 21.1 63 63 W 9 15 30.03 1017 10 16 0.00 0.00
10:53 am 10:53 Mostly Sunny 85 29.4 70 21.1 61 61 SSW 10 17 30.03 1017 10 16 0.00 0.00
11:53 am 11:53 Mostly Cloudy 85 29.4 69 20.6 59 59 SSW 10 17 30.01 1016 10 16 0.00 0.00
12:53 pm 12:53 Cloudy 85 29.4 68 20 57 57 SSW 10 17 29.99 1016 10 16 0.00 0.00
1:53 pm 13:53 Mostly Cloudy 84 28.9 69 20.6 61 61 SSW 12 19 29.96 1015 10 16 0.00 0.00
2:53 pm 14:53 Partly Cloudy 85 29.4 68 20 57 57 S 13 20 29.95 1014 10 16 0.00 0.00
3:53 pm 15:53 Partly Cloudy 85 29.4 67 19.4 55 55 S 15 24 29.95 1014 10 16 0.00 0.00
4:53 pm 16:53 Cloudy 83 28.3 68 20 61 61 S 13 20 29.95 1014 10 16 0.00 0.00
5:53 pm 17:53 Cloudy 82 27.8 69 20.6 65 65 SSE 10 17 29.96 1014 10 16 0.00 0.00
6:53 pm 18:53 Mostly Cloudy 82 27.8 68 20 63 63 ESE 6 9 29.98 1015 10 16 0.00 0.00
7:53 pm 19:53 Mostly Cloudy 81 27.2 64 17.8 57 57 NE 9 15 30.00 1016 10 16 0.00 0.00
8:26 pm 20:26 Mostly Clear 80 26.7 66 18.9 62 62 NNE 5 7 30.02 1016 10 16 0.00 0.00
8:41 pm 20:41 Mostly Cloudy 80 26.7 64 17.8 58 58 NE 9 15 30.02 1016 10 16 0.00 0.00
8:53 pm 20:53 Cloudy 80 26.7 64 17.8 58 58 NE 8 13 30.02 1017 10 16 0.00 0.00
9:53 pm 21:53 Cloudy 81 27.2 65 18.3 58 58 NE 5 7 30.04 1017 10 16 0.00 0.00
10:53 pm 22:53 Mostly Cloudy 80 26.7 64 17.8 58 58 Calm 30.02 1017 10 16 0.00 0.00
11:53 pm 23:53 Mostly Clear 78 25.6 66 18.9 67 67 ESE 8 13 30.01 1016 10 16 0.00 0.00

Powered by AerisWeather